Погода в Козуле

Россия / Республика Алтай     50°58′30″N   84°41′08″E
темп.,
°C
ветер,
м/с
пор.,
м/с
влажн.,
%
обл.,
%
осадки,
мм/ч
давл.,
гПа
погр.,
м
4 марта, чт
чт401:00−19ююз22851 0.0 103021
04:00−20ю23850 0.0 103224
07:00−20ююв238715 0.0 103227
10:00−16юв348773 0.0 1031148
13:00−10юв357686 0.0 1028451
16:00−7ююв3574100 0.0 1025545
19:00−11ю338077 0.0 102528
22:00−15ю337538 0.0 102626
5 марта, пт
пт501:00−17ююв337138 0.0 102524
04:00−16ююв3375100 0.0 102341
07:00−16ююв238280 0.0 102129
10:00−10ююв2392100 0.2 1020139
13:00−3ююз41175100 0.4 10221504
16:00−4юз4137491 0.2 10251685
19:00−9ююз348162 0.3 103062
22:00−13ю448332 0.0 103255
6 марта, сб
сб601:00−15ю348566 0.0 103355
04:00−15ю3487100 0.0 103264
07:00−15ююв3485100 0.0 103260
10:00−11ю4680100 0.0 1030255
13:00−6ююв477299 0.0 1026628
16:00−3ю466772 0.0 1023789
19:00−8ю347586 0.0 102335
22:00−12ю336981 0.0 102425
7 марта, вс
вс701:00−12ю336540 0.0 102525
04:00−13ю236724 0.0 102422
07:00−12ю227062 0.0 102522
10:00−8ююв227798 0.0 102386
13:00−2юв237491 0.0 1022354
16:000ююв238081 0.0 1020450
19:00−5ю338086 0.0 102125
22:00−8ююз2372100 0.0 102222
8 марта, пн
пн801:00−9ю2364100 0.0 102321
04:00−10ю236499 0.0 102222
07:00−10ююв236779 0.0 102223
10:00−5ююв357557 0.0 1020115
13:000ююв378078 0.0 1017548
16:00+1ююз41376100 0.0 10161438
19:00−4ю3578100 0.0 101785
22:00−7ююз3385100 0.0 102036